| time (UTC) | temp F | wind direction | speed MPH | gust MPH | rain 1hr in | rain 24hr in | rain mn in | humidity % | barometer mb |
| 20260903163108 | 60 | 141 | 0.0 | 0.0 | 0.00 | 0.00 | 0.00 | 15 | 1005.9 |
| 20260903161550 | 59 | 200 | 0.0 | 0.0 | 0.00 | 0.00 | 0.00 | 15 | 1005.9 |
| 20260903160044 | 59 | 154 | 0.0 | 0.0 | 0.00 | 0.00 | 0.00 | 16 | 1005.8 |
| 20260903154540 | 58 | 147 | 0.0 | 0.0 | 0.00 | 0.00 | 0.00 | 15 | 1006.4 |
| 20260903153035 | 57 | 136 | 0.0 | 0.0 | 0.00 | 0.00 | 0.00 | 17 | 1006.2 |
| 20260903151531 | 56 | 141 | 0.0 | 0.0 | 0.00 | 0.00 | 0.00 | 17 | 1006.8 |
| 20260903150036 | 55 | 150 | 0.0 | 0.0 | 0.00 | 0.00 | 0.00 | 19 | 1006.2 |
| 20260903144523 | 53 | 150 | 0.0 | 0.0 | 0.00 | 0.00 | 0.00 | 19 | 1006.3 |
| 20260903143018 | 52 | 140 | 0.0 | 0.0 | 0.00 | 0.00 | 0.00 | 20 | 1006.5 |
| 20260903141518 | 52 | 140 | 0.0 | 0.0 | 0.00 | 0.00 | 0.00 | 21 | 1006.4 |
| 20260903140018 | 52 | 140 | 0.0 | 0.0 | 0.00 | 0.00 | 0.00 | 19 | 1005.8 |
| 20260903134508 | 52 | 143 | 0.0 | 0.0 | 0.00 | 0.00 | 0.00 | 17 | 1005.7 |
| 20260903133002 | 52 | 143 | 0.0 | 0.0 | 0.00 | 0.00 | 0.00 | 14 | 1005.7 |
| 20260903131557 | 52 | 143 | 0.0 | 0.0 | 0.00 | 0.00 | 0.00 | 14 | 1005.7 |
| 20260903130052 | 52 | 143 | 0.0 | 0.0 | 0.00 | 0.00 | 0.00 | 11 | 1005.2 |
| 20260903124600 | 53 | 143 | 0.0 | 0.0 | 0.00 | 0.00 | 0.00 | 9 | 1004.8 |
| 20260903123044 | 53 | 143 | 0.0 | 0.0 | 0.00 | 0.00 | 0.00 | 7 | 1004.9 |
| 20260903121542 | 53 | 144 | 0.0 | 0.0 | 0.00 | 0.00 | 0.00 | 7 | 1004.9 |
| 20260903120040 | 53 | 144 | 0.0 | 0.0 | 0.00 | 0.00 | 0.00 | 7 | 1004.0 |
| 20260903114532 | 53 | 130 | 0.0 | 0.0 | 0.00 | 0.00 | 0.00 | 7 | 1004.0 |
| 20260903113026 | 53 | 130 | 0.0 | 0.0 | 0.00 | 0.00 | 0.00 | 6 | 1004.1 |
| 20260903111522 | 53 | 130 | 0.0 | 0.0 | 0.00 | 0.00 | 0.00 | 7 | 1004.3 |
| 20260903110017 | 53 | 130 | 0.0 | 0.0 | 0.00 | 0.00 | 0.00 | 8 | 1003.9 |
| 20260903104514 | 53 | 130 | 0.0 | 0.0 | 0.00 | 0.00 | 0.00 | 8 | 1004.1 |
| 20260903103009 | 53 | 130 | 0.0 | 0.0 | 0.00 | 0.00 | 0.00 | 8 | 1004.1 |
| 20260903101504 | 53 | 130 | 0.0 | 0.0 | 0.00 | 0.00 | 0.00 | 7 | 1004.1 |
| 20260903094600 | 53 | 130 | 0.0 | 0.0 | 0.00 | 0.00 | 0.00 | 7 | 1004.6 |
| 20260903093122 | 52 | 137 | 0.0 | 0.0 | 0.00 | 0.00 | 0.00 | 8 | 1004.6 |
| 20260903091553 | 52 | 138 | 0.0 | 0.0 | 0.00 | 0.00 | 0.00 | 8 | 1004.8 |
| 20260903090044 | 52 | 141 | 0.0 | 0.0 | 0.00 | 0.00 | 0.00 | 9 | 1005.2 |
| 20260903084539 | 52 | 141 | 0.0 | 0.0 | 0.00 | 0.00 | 0.00 | 10 | 1005.2 |
| 20260903083035 | 52 | 141 | 0.0 | 0.0 | 0.00 | 0.00 | 0.00 | 12 | 1004.7 |
| 20260903081536 | 53 | 141 | 0.0 | 0.0 | 0.00 | 0.00 | 0.00 | 11 | 1004.9 |
| 20260903080025 | 53 | 141 | 0.0 | 0.0 | 0.00 | 0.00 | 0.00 | 9 | 1004.9 |
| 20260903074525 | 52 | 141 | 0.0 | 0.0 | 0.00 | 0.00 | 0.00 | 10 | 1004.8 |
| 20260903073019 | 52 | 141 | 0.0 | 0.0 | 0.00 | 0.00 | 0.00 | 12 | 1005.1 |
| 20260903071517 | 52 | 141 | 0.0 | 0.0 | 0.00 | 0.00 | 0.00 | 13 | 1005.6 |
| 20260903070025 | 52 | 141 | 0.0 | 0.0 | 0.00 | 0.00 | 0.00 | 16 | 1005.9 |
| 20260903064515 | 52 | 137 | 0.0 | 0.0 | 0.00 | 0.00 | 0.00 | 25 | 1005.7 |
| 20260903063014 | 51 | 130 | 0.0 | 0.0 | 0.00 | 0.00 | 0.00 | 36 | 1005.4 |
| 20260903061515 | 50 | 130 | 0.0 | 0.0 | 0.00 | 0.00 | 0.00 | 24 | 1005.7 |
| 20260903060016 | 51 | 130 | 0.0 | 0.0 | 0.00 | 0.00 | 0.00 | 26 | 1006.2 |
| 20260903054514 | 52 | 130 | 0.0 | 0.0 | 0.00 | 0.00 | 0.00 | 43 | 1006.1 |
| 20260903053010 | 53 | 130 | 0.0 | 0.0 | 0.00 | 0.00 | 0.00 | 47 | 1005.9 |
| 20260903051510 | 53 | 130 | 0.0 | 0.0 | 0.00 | 0.00 | 0.00 | 32 | 1006.4 |
| 20260903050008 | 53 | 130 | 0.0 | 0.0 | 0.00 | 0.00 | 0.00 | 23 | 1007.0 |
| 20260903044509 | 52 | 128 | 0.0 | 0.0 | 0.00 | 0.00 | 0.00 | 24 | 1007.4 |
| 20260903043007 | 51 | 117 | 0.0 | 0.0 | 0.00 | 0.00 | 0.00 | 24 | 1007.5 |
| 20260903041517 | 52 | 117 | 0.0 | 0.0 | 0.00 | 0.00 | 0.00 | 27 | 1007.3 |
| 20260903040009 | 53 | 117 | 0.0 | 0.0 | 0.00 | 0.00 | 0.00 | 30 | 1007.1 |
| 20260903034513 | 54 | 117 | 0.0 | 0.0 | 0.00 | 0.00 | 0.00 | 36 | 1006.6 |
| 20260903033005 | 54 | 117 | 0.0 | 0.0 | 0.00 | 0.00 | 0.00 | 27 | 1006.3 |
| 20260903031505 | 55 | 202 | 0.0 | 0.0 | 0.00 | 0.00 | 0.00 | 27 | 1006.3 |
| 20260903030005 | 55 | 189 | 0.0 | 0.0 | 0.00 | 0.00 | 0.00 | 27 | 1006.7 |
| 20260903024503 | 55 | 160 | 0.0 | 0.0 | 0.00 | 0.00 | 0.00 | 27 | 1006.7 |
| 20260903023011 | 56 | 188 | 0.0 | 0.0 | 0.00 | 0.00 | 0.00 | 31 | 1006.6 |
| 20260903021505 | 56 | 182 | 0.0 | 0.0 | 0.00 | 0.00 | 0.00 | 27 | 1007.0 |
| 20260903020002 | 57 | 191 | 1.0 | 0.0 | 0.00 | 0.00 | 0.00 | 28 | 1007.7 |
| 20260903014504 | 58 | 195 | 1.0 | 0.0 | 0.00 | 0.00 | 0.00 | 29 | 1007.1 |
| 20260903013001 | 58 | 140 | 0.0 | 0.0 | 0.00 | 0.00 | 0.00 | 28 | 1007.2 |
| 20260903011600 | 59 | 196 | 1.0 | 0.0 | 0.00 | 0.00 | 0.00 | 27 | 1006.7 |
| 20260903010059 | 60 | 143 | 2.0 | 0.0 | 0.00 | 0.00 | 0.00 | 24 | 1006.8 |
| 20260903004602 | 61 | 208 | 1.0 | 0.0 | 0.00 | 0.00 | 0.00 | 23 | 1006.3 |
| 20260903003112 | 61 | 217 | 3.0 | 0.0 | 0.00 | 0.00 | 0.00 | 23 | 1006.3 |
| 20260903001557 | 63 | 284 | 2.0 | 0.0 | 0.00 | 0.00 | 0.00 | 20 | 1005.7 |
| 20260903000105 | 64 | 239 | 3.0 | 0.0 | 0.00 | 0.00 | 0.00 | 23 | 1005.8 |
| 20260902234555 | 64 | 188 | 3.0 | 0.0 | 0.00 | 0.00 | 0.00 | 21 | 1006.0 |
| 20260902233054 | 65 | 289 | 2.0 | 0.0 | 0.00 | 0.00 | 0.00 | 18 | 1005.8 |
| 20260902231554 | 66 | 258 | 2.0 | 0.0 | 0.00 | 0.00 | 0.00 | 15 | 1005.9 |
| 20260902224608 | 66 | 145 | 1.0 | 0.0 | 0.00 | 0.00 | 0.00 | 14 | 1006.2 |
| 20260902223108 | 66 | 193 | 2.0 | 0.0 | 0.00 | 0.00 | 0.00 | 16 | 1006.3 |
| 20260902221554 | 66 | 164 | 1.0 | 0.0 | 0.00 | 0.00 | 0.00 | 13 | 1006.4 |
| 20260902220049 | 66 | 144 | 2.0 | 0.0 | 0.00 | 0.00 | 0.00 | 13 | 1006.4 |
| 20260902214614 | 67 | 174 | 2.0 | 0.0 | 0.00 | 0.00 | 0.00 | 13 | 1006.4 |
| 20260902213048 | 68 | 206 | 1.0 | 0.0 | 0.00 | 0.00 | 0.00 | 15 | 1006.4 |
| 20260902211551 | 67 | 186 | 1.0 | 0.0 | 0.00 | 0.00 | 0.00 | 15 | 1006.9 |
| 20260902210048 | 67 | 126 | 1.0 | 0.0 | 0.00 | 0.00 | 0.00 | 15 | 1006.9 |
| 20260902204545 | 67 | 209 | 2.0 | 0.0 | 0.00 | 0.00 | 0.00 | 14 | 1006.4 |
| 20260902203043 | 67 | 212 | 1.0 | 0.0 | 0.00 | 0.00 | 0.00 | 12 | 1006.5 |
| 20260902201550 | 66 | 116 | 1.0 | 0.0 | 0.00 | 0.00 | 0.00 | 12 | 1007.1 |
| 20260902200040 | 66 | 114 | 0.0 | 0.0 | 0.00 | 0.00 | 0.00 | 14 | 1006.9 |
| 20260902194543 | 66 | 209 | 1.0 | 0.0 | 0.00 | 0.00 | 0.00 | 14 | 1007.1 |
| 20260902193033 | 65 | 206 | 2.0 | 0.0 | 0.00 | 0.00 | 0.00 | 13 | 1007.1 |
| 20260902191529 | 65 | 219 | 1.0 | 0.0 | 0.00 | 0.00 | 0.00 | 12 | 1007.2 |
| 20260902190024 | 64 | 128 | 0.0 | 0.0 | 0.00 | 0.00 | 0.00 | 12 | 1007.6 |
| 20260902184520 | 64 | 152 | 0.0 | 0.0 | 0.00 | 0.00 | 0.00 | 13 | 1008.1 |
| 20260902183018 | 62 | 213 | 0.0 | 0.0 | 0.00 | 0.00 | 0.00 | 13 | 1008.7 |
| 20260902181516 | 62 | 186 | 0.0 | 0.0 | 0.00 | 0.00 | 0.00 | 13 | 1008.6 |
| 20260902180014 | 61 | 141 | 1.0 | 0.0 | 0.00 | 0.00 | 0.00 | 13 | 1008.5 |
| 20260902174521 | 61 | 128 | 1.0 | 0.0 | 0.00 | 0.00 | 0.00 | 13 | 1008.2 |
| 20260902173011 | 60 | 131 | 1.0 | 0.0 | 0.00 | 0.00 | 0.00 | 13 | 1008.7 |
| 20260902171510 | 59 | 124 | 0.0 | 0.0 | 0.00 | 0.00 | 0.00 | 15 | 1008.6 |
| 20260902170007 | 58 | 151 | 0.0 | 0.0 | 0.00 | 0.00 | 0.00 | 14 | 1008.5 |
| 20260902164513 | 58 | 131 | 0.0 | 0.0 | 0.00 | 0.00 | 0.00 | 14 | 1008.5 |